Location: Arbon
(43.0005°N, 0.7472°E)
Time: 02:25:30
(UTC+00:00)

SL-19 R/B - Pass Details

Date: 07 August 2020
Orbit: 795 x 1010 km, 99.4° (Epoch: 19 September)

Event Time Altitude Azimuth Distance (km) Brightness Sun altitude
Rises 01:34:16 0° 11° (N) 3,658 8.7 -27.1°
Reaches altitude 10° 01:36:49 10° 7° (N) 2,680 7.7 -26.9°
Maximum altitude 01:42:40 57° 291° (WNW) 1,064 4.6 -26.4°
Enters shadow 01:43:13 55° 267° (W) 1,084 4.5 -26.4°
